Temperature
9 11 10 10 10 10 10 10 10 10 9 9 9 9 9 7 7 7 7 6 6 5 5 5 5 5 5 5 5 5 5 5 5 5 5 5 5 5 5 5 5 5 5 5
10 10 9 9 9 9 10 10 10 9 8 8 8 9 9 8 7 7 7 6 6 5 5 4 4 4 4 4 5 5 5 5 5 4 4 4 4 4 4 4 4 4 4 4
10 8 8 8 8 9 9 9 9 9 8 7 8 9 9 8 6 6 5 5 5 5 4 4 4 4 4 4 4 4 4 4 4 4 4 4 4 3 3 3 3 3 3 3
8 7 7 8 8 8 9 8 8 7 8 9 8 10 10 8 7 6 6 5 5 4 4 3 3 3 3 4 4 4 4 4 4 3 3 3 3 3 3 3 3 3 3 2
7 7 7 8 7 7 7 7 7 7 8 8 8 8 10 7 7 7 6 5 5 4 3 3 3 3 3 3 3 3 3 3 3 3 3 2 2 2 2 2 2 2 2 2
6 6 6 7 6 6 6 7 6 7 7 7 7 8 10 9 8 7 6 5 4 3 3 3 3 3 3 3 3 3 3 3 3 2 2 2 2 2 2 2 1 2 2 2
7 6 6 5 6 6 6 7 8 8 8 9 6 7 9 8 6 6 5 5 4 3 3 2 2 2 2 2 2 2 2 2 2 2 1 1 1 1 1 1 1 1 1 1
7 7 6 5 6 6 6 7 8 8 9 9 6 7 8 6 5 4 4 3 3 3 2 2 2 2 2 2 2 2 1 1 1 1 1 1 1 1 1 1 1 1 1 1
8 7 5 5 5 6 6 6 6 6 5 6 8 8 7 6 5 4 4 3 3 2 2 2 2 1 1 1 1 1 1 1 1 1 1 1 1 0 0 0 0 0 0 0
6 5 5 4 5 4 5 5 5 6 7 8 9 8 9 6 6 5 4 3 2 2 1 1 1 1 1 1 1 1 0 0 0 0 0 0 0 0 -0 -0 -0 -0 -0 -0
5 5 4 4 4 5 4 4 5 5 5 7 8 9 7 6 6 5 4 3 2 1 1 1 1 0 0 0 0 0 0 -0 -0 -0 -0 -0 -0 -0 -1 -1 -1 -1 -1 -1
4 5 5 4 4 3 4 5 5 5 5 5 7 8 5 5 4 3 3 2 2 1 1 0 0 -0 -0 -0 -0 -0 -0 -0 -0 -1 -1 -1 -1 -1 -1 -1 -1 -1 -1 -1
3 3 5 5 4 3 3 3 3 3 4 4 6 8 5 4 3 2 2 2 1 0 0 -0 -1 -1 -1 -1 -1 -1 -1 -1 -1 -1 -1 -1 -1 -1 -1 -1 -2 -2 -1 -2
3 2 4 6 6 4 2 2 2 3 4 5 5 7 5 5 4 3 2 1 0 -0 -0 -1 -1 -1 -1 -1 -1 -1 -1 -1 -1 -1 -1 -2 -2 -2 -2 -2 -2 -2 -2 -2
2 2 2 2 2 2 2 2 2 2 4 4 5 4 5 4 3 3 1 1 0 -0 -1 -1 -1 -1 -2 -2 -2 -2 -2 -1 -2 -2 -2 -2 -2 -2 -2 -2 -3 -2 -2 -2
0 1 0 1 1 0 1 1 1 2 2 3 3 3 4 3 2 1 1 0 -0 -1 -1 -1 -2 -2 -2 -2 -2 -2 -2 -2 -2 -2 -2 -3 -3 -3 -3 -3 -3 -3 -3 -3
0 0 2 3 0 0 2 2 1 1 1 2 3 3 3 2 1 1 0 -0 -0 -1 -1 -2 -2 -2 -2 -2 -2 -2 -2 -2 -3 -3 -3 -3 -3 -3 -3 -3 -3 -3 -3 -3
-1 0 1 2 1 3 4 1 1 1 0 0 1 1 1 0 -0 -1 -1 -1 -1 -1 -2 -2 -2 -2 -2 -2 -2 -3 -3 -3 -3 -3 -3 -3 -3 -3 -3 -3 -4 -3 -3 -3
-1 -0 1 1 2 3 3 0 -1 -1 0 -0 -0 -0 -0 -1 -1 -1 -1 -1 -2 -2 -2 -2 -2 -2 -3 -3 -3 -3 -3 -3 -3 -4 -4 -4 -4 -4 -4 -4 -4 -4 -4 -4
-3 -2 0 0 2 3 3 -0 -2 -1 1 0 -1 -1 -2 -2 1 1 -2 -2 -2 -2 -3 -3 -3 -3 -3 -3 -3 -3 -4 -4 -4 -4 -4 -4 -4 -4 -4 -4 -4 -4 -4 -4
-2 -1 -0 0 2 3 1 -2 -2 2 2 -1 -2 -2 -3 -3 -1 -2 -2 -3 -3 -3 -3 -3 -3 -3 -3 -4 -4 -4 -4 -4 -4 -4 -4 -4 -4 -4 -4 -4 -4 -4 -4 -4
-0 -0 -1 0 1 2 -1 -2 -0 1 -1 -1 -2 -2 -3 -3 -3 -3 -3 -3 -3 -3 -4 -4 -4 -4 -4 -4 -4 -4 -4 -5 -5 -5 -5 -5 -5 -5 -5 -5 -5 -5 -5 -5
-1 -0 0 0 2 -0 -2 -2 -1 -1 -2 -2 -2 -2 -2 -3 -3 -3 -3 -4 -4 -4 -4 -4 -4 -4 -4 -4 -5 -5 -5 -5 -5 -5 -5 -5 -5 -5 -5 -5 -5 -5 -5 -5
-2 -4 -2 -2 -1 -2 -3 -2 -2 -2 -2 -2 -2 -3 -3 -3 -3 -3 -4 -4 -4 -4 -4 -4 -4 -4 -5 -5 -5 -5 -5 -5 -5 -5 -5 -5 -5 -6 -6 -6 -6 -6 -6 -6
-1 -3 -3 -3 -2 -3 -2 -2 -2 -2 -2 -2 -3 -3 -3 -3 -3 -4 -4 -4 -4 -4 -5 -5 -5 -5 -5 -5 -5 -5 -5 -5 -5 -6 -6 -6 -6 -6 -6 -6 -6 -6 -6 -6
-3 -3 -2 -0 -1 -2 -1 -1 -2 -2 -2 -3 -3 -3 -3 -3 -4 -4 -4 -4 -5 -5 -5 -5 -5 -5 -5 -5 -6 -6 -6 -6 -6 -6 -6 -6 -6 -6 -6 -6 -6 -6 -6 -6
Wind_Speed
2 2 3 4 3 2 3 4 5 5 3 5 8 9 7 6 7 8 7 6 5 5 3 1 0 1 1 2 2 2 2 2 2 1 2 2 2 2 3 3 4 4 4 4
3 3 2 2 2 2 3 4 5 4 3 5 7 11 8 7 8 8 8 7 6 5 3 2 1 1 1 1 2 2 2 2 2 1 2 2 2 2 2 2 3 4 4 4
3 1 2 3 3 2 3 5 5 5 4 3 6 8 8 6 7 6 6 6 6 5 4 3 2 1 1 2 2 2 2 2 2 1 1 1 1 1 2 2 3 4 4 4
1 1 2 3 3 4 5 3 4 4 4 3 3 6 6 5 6 6 6 6 6 5 4 3 3 2 2 2 2 2 2 2 2 1 1 1 2 2 3 3 3 3 4 4
2 1 2 3 3 3 2 1 2 3 4 5 4 6 5 3 6 6 6 6 6 5 5 4 3 2 2 2 2 2 2 2 2 2 2 2 2 2 2 2 3 3 3 4
1 0 0 0 1 1 2 1 0 2 3 5 5 7 6 4 5 4 4 5 5 5 4 3 2 1 1 1 1 2 2 2 2 2 2 2 2 3 3 3 3 3 3 3
1 1 1 1 2 2 2 2 1 2 3 5 2 6 7 3 3 4 4 5 5 5 4 4 3 2 2 2 2 2 2 2 2 2 2 3 3 3 3 3 3 3 3 3
3 3 3 1 2 3 4 3 3 4 5 4 4 7 5 2 3 4 4 4 4 4 4 4 4 3 2 2 2 2 2 3 3 3 3 3 3 3 3 3 4 4 3 3
4 2 1 0 1 2 3 3 2 1 2 5 6 6 6 3 4 4 4 4 4 4 4 4 3 3 3 2 3 3 2 3 3 3 3 3 3 3 3 4 4 4 3 4
2 2 1 1 2 1 1 3 2 3 3 6 7 7 5 4 4 5 5 4 4 4 3 3 3 3 3 3 3 3 3 2 2 2 2 3 3 3 3 3 4 4 4 4
1 3 2 2 5 4 4 3 3 3 3 5 6 4 1 3 4 4 4 4 4 4 4 3 3 3 3 2 2 2 2 2 2 2 3 3 3 3 3 3 4 4 4 4
2 2 3 3 1 3 4 5 6 4 5 5 6 6 1 3 4 4 5 5 4 3 3 3 3 3 3 2 2 2 2 2 2 3 3 3 3 3 3 4 4 4 4 4
3 3 2 2 3 3 4 5 4 2 3 5 6 6 0 3 4 5 5 5 4 3 3 3 3 3 3 2 2 2 3 3 2 2 3 3 3 3 4 4 4 4 4 4
3 3 5 6 3 3 5 6 6 6 6 7 10 11 7 6 7 6 6 5 4 3 3 3 3 3 3 3 2 3 3 2 2 3 3 3 4 4 4 4 4 5 4 4
2 3 4 5 4 3 6 7 9 11 11 10 11 12 12 10 9 8 7 6 5 4 4 4 4 4 3 3 3 2 3 2 2 2 3 4 4 4 4 4 4 4 4 4
1 3 2 4 3 4 6 9 10 12 11 13 14 15 10 9 8 8 7 6 6 5 5 5 4 4 4 3 3 3 3 2 2 3 3 4 3 4 4 4 4 4 4 5
4 4 3 4 2 3 8 8 10 8 8 8 12 10 9 8 9 9 7 7 7 7 6 5 5 4 4 3 3 3 3 2 2 3 3 4 3 4 4 4 4 4 5 5
4 4 2 2 1 7 3 1 5 7 8 8 8 9 9 10 9 8 6 7 8 7 6 5 4 4 3 3 2 2 2 2 2 3 3 4 4 4 4 4 5 5 5 5
2 4 3 2 4 7 4 2 2 4 7 6 8 11 10 8 7 5 4 6 7 6 5 4 4 3 2 2 2 2 2 2 3 3 4 4 4 4 4 5 5 5 5 5
1 2 3 3 4 6 1 2 0 2 5 1 4 7 7 5 5 4 6 6 6 4 3 2 2 2 1 1 1 2 2 3 3 4 4 4 4 4 5 5 5 5 4 5
3 3 5 5 6 6 1 1 2 3 3 3 4 5 4 4 5 6 7 6 4 3 2 2 1 1 1 1 1 2 2 3 4 4 4 4 4 4 4 4 4 4 4 4
6 6 6 5 6 6 2 3 4 3 3 3 4 3 4 5 6 6 5 5 4 3 3 2 1 2 2 1 1 2 3 3 4 4 4 4 4 4 4 4 4 4 4 4
6 6 4 7 5 2 3 4 3 2 3 4 4 4 4 4 5 4 4 4 3 3 2 2 2 2 2 2 2 3 3 3 3 4 4 4 4 4 4 4 4 4 3 3
4 3 3 5 7 5 5 5 5 4 5 5 4 4 4 5 5 4 3 3 3 3 2 2 2 2 3 3 3 3 3 3 3 4 4 4 4 4 4 3 3 3 3 3
4 6 4 6 6 5 5 6 5 5 5 5 5 4 5 5 4 4 3 3 3 3 2 2 2 2 3 3 3 3 3 3 3 4 4 4 4 4 3 3 3 4 4 4
5 6 6 6 5 4 5 4 4 5 5 5 4 4 4 4 4 4 3 3 2 2 2 2 2 2 3 3 3 3 3 3 3 3 3 3 3 3 3 3 4 4 5 6
Wind_Direction
90 152 193 206 217 262 228 239 256 277 288 267 254 257 255 234 235 237 236 237 234 234 238 248 287 19 17 8 357 354 360 2 6 353 335 338 352 357 6 13 8 4 1 354
145 201 229 184 166 175 220 242 271 285 300 276 270 268 259 237 238 245 243 238 237 234 233 233 243 316 323 334 327 329 339 345 348 337 316 316 321 325 342 355 359 359 356 354
181 128 143 160 169 202 241 249 264 277 296 260 285 267 241 231 238 246 245 241 235 232 231 228 231 262 293 308 312 313 321 323 325 326 319 328 321 318 328 343 346 350 349 351
137 164 175 184 215 232 247 266 260 260 262 265 271 278 243 226 238 238 238 234 234 229 229 234 239 260 276 294 311 310 307 314 317 307 284 293 299 307 316 316 317 330 343 349
160 177 182 204 236 234 234 284 250 249 253 264 245 262 262 215 243 240 237 236 234 228 229 232 237 256 277 298 312 310 302 308 310 298 281 273 282 296 303 304 308 321 333 343
148 184 286 193 57 159 148 135 128 216 238 256 244 246 266 236 238 238 241 242 234 226 226 232 238 260 278 309 318 309 301 300 297 289 280 273 279 289 295 302 307 311 315 324
185 173 138 149 137 152 203 206 247 238 237 252 228 244 259 262 242 239 253 255 232 221 220 223 228 243 268 280 287 294 301 300 292 278 276 274 273 278 283 289 291 298 303 311
196 213 179 188 215 201 205 228 236 256 263 276 231 245 260 258 251 253 253 253 228 222 222 226 228 234 248 260 270 276 289 294 295 287 284 276 273 276 280 284 287 285 289 294
204 196 118 32 329 196 181 210 287 252 283 272 256 263 269 238 253 250 249 243 236 236 235 238 237 240 243 251 265 267 275 289 297 297 292 284 282 282 282 288 288 286 288 292
195 200 219 193 172 87 268 156 170 208 246 262 268 263 266 252 261 251 246 246 248 243 244 249 245 250 246 243 259 266 271 277 289 291 294 295 290 288 288 289 288 289 293 293
207 188 195 204 212 208 176 182 205 217 258 261 274 269 291 258 261 261 262 260 256 243 241 243 244 247 247 245 249 259 267 273 281 290 293 292 296 296 293 293 295 297 295 293
178 192 227 238 255 284 236 222 204 228 239 244 266 273 102 281 295 287 282 278 263 249 242 245 246 239 238 241 250 260 274 275 281 285 288 291 299 297 299 302 304 306 300 295
164 171 205 236 215 207 225 223 224 235 228 232 247 266 4 306 303 297 294 291 277 262 255 251 248 239 240 246 257 269 277 281 281 279 284 290 295 300 301 303 305 305 302 296
173 196 227 249 281 204 227 224 213 210 232 246 249 270 285 296 302 305 304 296 287 273 259 253 249 247 250 257 262 270 280 285 280 278 280 288 295 299 300 299 302 302 301 302
183 218 236 267 280 259 247 236 217 221 235 248 265 270 281 291 297 301 301 294 287 278 267 259 258 256 249 257 270 276 286 286 277 278 286 292 298 299 300 296 298 302 300 299
170 204 214 257 258 261 261 249 233 235 244 254 271 278 287 296 298 297 294 285 276 271 269 266 263 259 251 253 263 274 279 286 281 277 287 299 299 297 298 301 298 297 298 300
176 171 208 246 285 279 257 235 219 228 235 246 256 272 301 302 302 301 297 287 280 277 271 262 259 258 254 254 258 263 271 279 278 281 286 292 295 300 301 302 296 296 294 295
172 181 203 240 250 245 248 162 217 233 251 243 259 283 300 302 305 301 295 291 288 287 278 267 264 266 261 259 263 270 274 267 268 276 281 284 288 292 300 300 293 290 291 290
208 179 181 205 247 270 275 210 188 230 269 242 258 283 300 317 303 287 303 301 293 290 280 272 269 261 255 254 257 265 267 268 273 278 281 285 284 286 290 293 294 293 291 289
107 174 194 202 235 252 260 113 278 242 266 247 270 289 309 322 297 315 344 325 317 314 302 294 287 271 251 268 254 245 258 266 276 283 285 287 284 284 282 285 290 295 294 293
171 185 209 218 242 265 274 151 181 230 294 332 290 291 287 273 288 317 323 325 327 329 333 338 320 283 287 295 265 259 268 278 289 292 290 289 285 283 282 286 290 292 293 297
194 191 203 202 225 250 146 158 207 272 328 305 299 289 271 279 300 313 319 325 334 340 349 355 346 333 333 316 284 280 286 296 299 295 292 291 290 288 286 285 288 290 291 293
213 210 206 210 232 309 189 224 258 294 287 294 296 289 276 278 290 306 315 319 325 330 338 346 347 340 340 329 302 289 301 307 303 297 294 296 299 294 287 281 283 287 288 286
222 216 223 250 264 268 248 251 262 265 273 285 287 281 267 271 282 296 304 307 312 317 324 332 337 331 327 326 316 301 305 304 300 298 298 299 297 296 294 287 281 280 279 282
218 186 216 251 270 283 257 241 261 277 280 284 286 272 267 268 275 280 286 289 294 303 308 309 307 306 315 324 323 321 315 308 302 299 299 301 296 293 297 295 291 284 279 280
208 200 209 240 237 238 266 267 267 264 272 277 280 282 278 260 264 271 274 276 280 288 296 301 304 307 312 317 320 324 320 310 301 297 298 299 299 301 300 301 303 294 282 290
Height
1514 1514 1514 1514 1516 1515 1515 1515 1514 1516 1520 1520 1516 1514 1516 1518 1519 1518 1518 1518 1518 1519 1520 1519 1519 1518 1518 1517 1516 1516 1515 1514 1514 1513 1512 1512 1511 1510 1509 1508 1507 1506 1506 1505
1514 1515 1517 1518 1519 1518 1517 1516 1515 1518 1521 1520 1516 1513 1513 1515 1515 1515 1515 1515 1515 1516 1517 1516 1516 1516 1516 1515 1514 1514 1513 1512 1512 1511 1511 1510 1509 1508 1507 1506 1505 1504 1503 1502
1511 1518 1519 1519 1518 1517 1516 1515 1515 1517 1519 1519 1517 1508 1508 1511 1513 1513 1513 1513 1513 1513 1514 1514 1514 1514 1513 1513 1512 1511 1510 1510 1510 1509 1508 1508 1507 1506 1505 1504 1502 1501 1501 1500
1516 1519 1519 1518 1518 1517 1515 1518 1518 1518 1516 1512 1516 1503 1500 1506 1508 1509 1510 1510 1510 1511 1511 1511 1511 1511 1510 1510 1510 1509 1508 1508 1507 1506 1506 1505 1504 1503 1502 1501 1500 1499 1498 1497
1517 1519 1518 1517 1519 1519 1518 1520 1519 1518 1516 1514 1514 1511 1494 1503 1503 1503 1506 1507 1507 1508 1508 1508 1508 1508 1508 1507 1507 1506 1506 1505 1504 1504 1503 1502 1502 1501 1500 1499 1497 1496 1496 1495
1519 1521 1520 1519 1521 1521 1521 1520 1519 1518 1515 1512 1509 1508 1491 1494 1498 1500 1502 1504 1504 1505 1506 1506 1506 1505 1505 1505 1504 1504 1503 1502 1502 1501 1500 1500 1499 1498 1497 1496 1495 1494 1493 1492
1517 1519 1521 1521 1520 1521 1520 1517 1513 1510 1508 1501 1511 1508 1493 1495 1498 1499 1500 1501 1502 1502 1503 1503 1503 1502 1502 1502 1502 1501 1500 1499 1499 1498 1497 1497 1496 1495 1494 1493 1492 1491 1490 1489
1511 1513 1519 1520 1518 1517 1518 1516 1511 1505 1499 1496 1509 1500 1491 1497 1498 1498 1499 1499 1499 1500 1500 1500 1500 1500 1500 1500 1499 1498 1497 1497 1496 1495 1495 1494 1493 1492 1491 1490 1489 1488 1487 1486
1508 1512 1520 1521 1520 1518 1517 1516 1517 1515 1518 1509 1493 1491 1491 1494 1495 1496 1496 1496 1497 1497 1497 1498 1498 1498 1497 1497 1497 1496 1495 1494 1493 1492 1492 1491 1490 1489 1488 1487 1486 1485 1484 1483
1512 1516 1519 1521 1521 1521 1519 1518 1518 1514 1508 1496 1488 1487 1482 1489 1490 1491 1493 1493 1494 1494 1495 1495 1495 1495 1494 1495 1494 1493 1492 1491 1490 1490 1489 1488 1487 1486 1485 1484 1483 1482 1481 1480
1515 1516 1518 1519 1517 1515 1520 1520 1517 1513 1511 1500 1489 1482 1486 1487 1489 1490 1491 1492 1492 1492 1492 1492 1492 1492 1492 1491 1491 1490 1490 1489 1488 1487 1486 1485 1484 1483 1482 1481 1480 1478 1478 1477
1515 1514 1514 1515 1518 1519 1516 1514 1514 1511 1511 1509 1497 1487 1489 1490 1490 1491 1490 1490 1490 1490 1490 1489 1489 1489 1489 1488 1488 1487 1487 1486 1485 1484 1484 1483 1481 1480 1479 1478 1477 1476 1475 1474
1515 1515 1511 1509 1516 1519 1517 1515 1515 1515 1511 1506 1496 1486 1490 1491 1490 1490 1489 1488 1488 1487 1487 1487 1486 1486 1486 1485 1485 1484 1484 1483 1482 1481 1481 1480 1479 1478 1476 1475 1474 1473 1472 1472
1514 1514 1509 1500 1499 1507 1512 1513 1515 1513 1507 1499 1494 1485 1487 1488 1488 1488 1487 1486 1486 1485 1484 1484 1483 1483 1483 1482 1482 1481 1481 1480 1479 1479 1478 1477 1476 1475 1474 1473 1472 1471 1470 1469
1512 1511 1513 1511 1511 1512 1510 1509 1510 1510 1501 1497 1487 1489 1485 1487 1487 1487 1486 1484 1483 1482 1482 1481 1480 1480 1480 1479 1479 1479 1478 1478 1477 1476 1475 1474 1473 1472 1471 1470 1469 1468 1467 1466
1512 1512 1515 1513 1512 1513 1510 1507 1506 1505 1502 1497 1493 1489 1486 1487 1486 1485 1483 1482 1481 1480 1479 1478 1477 1477 1477 1477 1476 1476 1476 1475 1474 1473 1472 1471 1470 1469 1468 1467 1466 1465 1464 1464
1511 1512 1509 1502 1512 1510 1499 1497 1500 1499 1497 1495 1490 1486 1485 1484 1483 1482 1481 1480 1478 1477 1476 1475 1475 1474 1474 1474 1474 1473 1473 1472 1471 1471 1470 1469 1468 1466 1465 1464 1463 1463 1462 1461
1511 1510 1508 1505 1509 1499 1489 1495 1495 1495 1493 1492 1489 1486 1485 1484 1482 1480 1478 1477 1476 1475 1473 1473 1472 1471 1471 1471 1471 1471 1470 1469 1469 1468 1467 1466 1465 1464 1463 1462 1461 1460 1459 1458
1509 1509 1507 1505 1498 1488 1489 1494 1495 1495 1489 1488 1487 1484 1483 1482 1479 1476 1475 1474 1473 1472 1471 1470 1470 1469 1469 1469 1469 1468 1467 1467 1466 1465 1464 1464 1462 1461 1460 1459 1458 1457 1457 1455
1511 1510 1507 1505 1496 1486 1484 1492 1493 1494 1485 1484 1484 1483 1482 1481 1477 1474 1473 1472 1470 1469 1468 1467 1467 1466 1466 1466 1466 1466 1465 1465 1464 1463 1462 1461 1460 1458 1457 1456 1456 1455 1454 1453
1508 1507 1505 1501 1494 1485 1488 1491 1493 1488 1481 1483 1482 1481 1480 1480 1478 1476 1472 1470 1469 1467 1466 1465 1465 1465 1464 1464 1464 1463 1463 1462 1461 1460 1459 1458 1457 1456 1455 1454 1453 1452 1451 1450
1497 1498 1501 1498 1494 1486 1488 1490 1488 1483 1482 1481 1480 1479 1478 1477 1475 1473 1471 1469 1467 1466 1465 1464 1463 1463 1463 1462 1462 1461 1460 1460 1459 1457 1456 1455 1454 1453 1452 1451 1450 1449 1448 1447
1495 1493 1491 1491 1486 1485 1485 1484 1483 1482 1481 1480 1479 1477 1476 1474 1472 1471 1469 1468 1466 1465 1464 1463 1462 1462 1461 1461 1460 1459 1458 1457 1456 1455 1454 1452 1451 1451 1450 1448 1447 1446 1445 1444
1493 1494 1493 1491 1484 1483 1482 1481 1481 1480 1479 1478 1477 1475 1474 1472 1470 1469 1468 1466 1465 1464 1463 1462 1461 1460 1460 1459 1458 1457 1456 1455 1454 1452 1451 1450 1449 1448 1447 1446 1445 1444 1443 1441
1486 1490 1489 1487 1483 1481 1479 1478 1478 1477 1476 1475 1474 1472 1471 1470 1468 1467 1466 1465 1464 1463 1462 1461 1460 1459 1458 1457 1456 1455 1454 1453 1451 1450 1449 1447 1446 1446 1444 1443 1442 1441 1440 1439
1483 1483 1482 1477 1477 1478 1476 1475 1475 1474 1473 1472 1471 1469 1468 1467 1466 1465 1464 1463 1462 1461 1460 1459 1458 1457 1456 1455 1454 1453 1452 1450 1449 1448 1447 1446 1444 1443 1442 1441 1440 1438 1437 1436